Location: ?astrovice
(49.6513°N, 14.9287°E)
Time: 09:01:33
(UTC+00:00)

Cosmos 1697 Rocket - Pass Details

Date: 09 April 2020
Orbit: 831 x 845 km, 71.0° (Epoch: 01 June)

Event Time Altitude Azimuth Distance (km) Brightness Sun altitude
Rises 21:06:04 0° 327° (NNW) 3,413 7.2 -27.1°
Reaches altitude 10° 21:08:36 10° 322° (NW) 2,475 6.1 -27.3°
Maximum altitude 21:14:01 48° 250° (WSW) 1,098 3.2 -27.8°
Enters shadow 21:14:22 47° 238° (WSW) 1,107 3.2 -27.8°
